AirNav   Air Wisconsin pilot careers
 
 653 users online  

2AL3 Emerald Mountain Airport
Wetumpka, Alabama, USA

GOING TO WETUMPKA?


FAA INFORMATION EFFECTIVE 26 APRIL 2018

Location

FAA Identifier: 2AL3
Lat/Long: 32-27-19.4910N / 086-07-09.0000W
32-27.324850N / 086-07.150000W
32.4554142 / -86.1191667
(estimated)
Elevation: 365 ft. / 111 m (estimated)
Variation: 01W (1990)
From city: 7 miles SE of WETUMPKA, AL
Time zone: UTC -5 (UTC -6 during Standard Time)
Zip code: 36093

Airport Operations

Airport use: Private use. Permission required prior to landing
Activation date: 01/1994
Control tower: no
ARTCC: ATLANTA CENTER
FSS: ANNISTON FLIGHT SERVICE STATION
Attendance: UNATNDD
Wind indicator: lighted
Segmented circle: no
Lights: ACTVT LIRL RY 06/24 - UNICOM.

Airport Communications

UNICOM: 122.8
WX ASOS at MGM (17 nm SW): PHONE 334-288-0445
WX AWOS-3P at 1A9 (20 nm W): 118.025 (334-358-0919)

Nearby radio navigation aids

VOR radial/distance  VOR name  Freq  Var
MGMr033/17.3MONTGOMERY VORTAC112.1003E
TGEr264/22.8TUSKEGEE VOR/DME117.3002E

 
NDB name  Hdg/Dist  Freq  Var  ID
BLOOD003/37.536504WTOI - --- ..

Airport Services

Runway Information

Runway 6/24

Dimensions: 2750 x 80 ft. / 838 x 24 m
Surface: turf, in good condition
Runway edge lights: low intensity
RUNWAY 6  RUNWAY 24
Traffic pattern: leftleft
Obstructions: 60 ft. tree, 540 ft. from runway60 ft. tree, 1500 ft. from runway

Airport Ownership and Management from official FAA records

Ownership: Privately-owned
Owner: SIM ALLEN
407 PEACE CHURCH RD
WETUMPKA, AL 36092
Phone 205-267-0700
Manager: SIM ALLEN
407 PEACE CHURCH RD
WETUMPKA, AL 36092
Phone 205-267-0700

Airport Operational Statistics

Aircraft based on the field: 1
Single engine airplanes: 1
    

Instrument Procedures

There are no published instrument procedures at 2AL3.

Some nearby airports with instrument procedures:

08A - Wetumpka Municipal Airport (12 nm W)
KMXF - Maxwell Air Force Base (13 nm W)
KMGM - Montgomery Regional Airport (Dannelly Field) (17 nm SW)
1A9 - Prattville Airport - Grouby Field (20 nm W)
06A - Moton Field Municipal Airport (22 nm E)
 
Loc | Ops | Rwys | IFR | FBO | Links
Com | Nav | Svcs | Stats | Notes

AirNav Hotels Sweepstakes
 
Area around 2AL3 (Emerald Mountain Airport)
 
Road maps at: MapQuest Bing Google
 
Aerial photo
No photo
 
Sectional chart

 
Airport distance calculator
Flying to Emerald Mountain Airport? Find the distance to fly.

From to 2AL3

Sunrise and sunset
Times for 23-May-2018
 Local
(UTC-5)
 Zulu
(UTC)
Morning civil twilight05:1510:15
Sunrise05:4210:42
Sunset19:4000:40
Evening civil twilight20:0701:07

Current date and time
Zulu (UTC)  24-May-2018 04:52:58
Local (UTC-5)  23-May-2018 23:52:58
 
METAR
KMXF 
14nm SW 
240356Z AUTO 23003KT 10SM FEW050 24/22 A3008 RMK AO2 SLP187 T02420224 $
KMGM 
17nm SW 
240353Z AUTO 24005KT 10SM CLR 24/22 A3009 RMK AO2 SLP185 T02440222
K1A9 
20nm W 
240435Z AUTO 00000KT 10SM CLR 23/23 A3007 RMK AO2 T02250225
TAF
KMXF 
14nm SW 
232250Z 2322/2501 36009KT 8000 -SHRA BKN040 OVC120 QNH3000INS TEMPO 2322/2324 VRB15G20KT 4800 -TSRA SCT015 OVC025CB BECMG 2323/2324 36006KT 9999 NSW BKN030 QNH3004INS BECMG 2405/2406 VRB06KT 9999 OVC020 QNH3005INS BECMG 2408/2409 VRB06KT 6000 BR OVC015 QNH3007INS BECMG 2414/2415 VRB06KT 9999 NSW OVC020 QNH3005INS BECMG 2417/2418 25009KT 8000 -SHRA VCTS SCT020 BKN040CB QNH3003INS TX29/2322Z TN21/2410Z LAST NO AMDS AFT 2403 NEXT 2411
KMGM 
17nm SW 
232145Z 2322/2418 32008KT P6SM VCTS SCT025 BKN035CB BKN070 TEMPO 2322/2323 03015G23KT RA BKN025 FM232300 28005KT P6SM FEW025 SCT050 BKN250 FM240900 VRB03KT P6SM VCSH SCT009 BKN035
NOTAMs
Click for the latest NOTAMs
NOTAMs are issued by the DoD/FAA and will open in a separate window not controlled by AirNav.

 

 
 

Would you like to see your business listed on this page?

 If your business provides an interesting product or service to pilots, flight crews, aircraft, or users of the Emerald Mountain Airport, you should consider listing it here.  To start the listing process, click on the button below
 
Add a business
 

Other Pages about Emerald Mountain Airport

Update a link
 
Copyright © AirNav, LLC. All rights reserved. Privacy Policy  Contact